This demonstration page uses our WeatherBlox Daily Observations layout. Learn more.

Left ArrowRight Arrow

34.74481, -87.66753

Hourly Observations for June 15, 2018

Temp ( °F °C ) Dew Point ( °F °C ) Humidity (%) Winds ( mph kmh ) Pressure ( in mb ) Visibility ( mi km ) Precip ( " mm )
12:53 am 00:53 Clear 74 23.3 72 22.2 94 94 Calm 29.99 1016 10 16 0.00 0.00
1:53 am 01:53 Clear 73 22.8 71 21.7 94 94 Calm 29.97 1015 10 16 0.00 0.00
2:50 am 02:50 Clear with Mist and Fog 72 22 72 22 100 100 Calm 29.97 1015 2 3 0.00 0.00
2:53 am 02:53 Clear with Mist and Fog 72 22.2 71 21.7 97 97 Calm 29.96 1015 1 2 0.00 0.00
3:02 am 03:02 Clear with Mist and Fog 72 22.2 71 21.7 97 97 SSE 3 6 29.97 1015 1 1 0.00 0.00
3:07 am 03:07 Clear with Mist and Fog 72 22.2 71 21.7 97 97 S 3 6 29.97 1015 2 3 0.00 0.00
3:14 am 03:14 Clear 72 22.2 71 21.7 97 97 Calm 29.97 1015 9 14 0.00 0.00
3:28 am 03:28 Clear with Mist and Fog 72 22.2 70 21.1 94 94 Calm 29.97 1015 2 2 0.00 0.00
3:38 am 03:38 Mostly Clear with Mist and Fog 72 22.2 70 21.1 94 94 Calm 29.97 1015 2 3 0.00 0.00
3:45 am 03:45 Partly Cloudy with Mist and Fog 72 22.2 71 21.7 97 97 Calm 29.97 1015 4 6 0.00 0.00
3:47 am 03:47 Mostly Cloudy with Mist and Fog 72 22 72 22 100 100 Calm 29.97 1015 3 4 0.00 0.00
3:53 am 03:53 Mostly Cloudy with Mist and Fog 72 22.2 71 21.7 97 97 Calm 29.98 1015 1 2 0.00 0.00
4:13 am 04:13 Cloudy with Mist and Fog 72 22.2 71 21.7 97 97 Calm 29.97 1015 3 5 0.00 0.00
4:24 am 04:24 Cloudy with Mist and Fog 72 22.2 71 21.7 97 97 Calm 29.97 1015 2 2 0.00 0.00
4:32 am 04:32 Mostly Cloudy with Fog 72 22.2 71 21.7 97 97 Calm 29.97 1015 1 1 0.00 0.00
4:53 am 04:53 Mostly Cloudy with Mist and Fog 72 22.2 71 21.7 97 97 Calm 29.99 1016 1 1 0.00 0.00
5:08 am 05:08 Cloudy with Mist and Fog 72 22.2 71 21.7 97 97 Calm 30.00 1016 2 3 0.00 0.00
5:15 am 05:15 Cloudy with Mist and Fog 72 22.2 70 21.1 94 94 Calm 30.00 1016 1 2 0.00 0.00
5:19 am 05:19 Mostly Cloudy with Mist and Fog 72 22.2 71 21.7 97 97 Calm 30.00 1016 1 1 0.00 0.00
5:39 am 05:39 Cloudy with Mist and Fog 72 22.2 71 21.7 97 97 Calm 30.00 1016 2 3 0.00 0.00
5:47 am 05:47 Cloudy with Mist and Fog 72 22 70 21 94 94 Calm 30.00 1016 1 1 0.00 0.00
5:53 am 05:53 Mostly Cloudy with Fog 71 21.7 70 21.1 96 96 Calm 30.01 1016 0 0 0.00 0.00
6:01 am 06:01 Mostly Cloudy with Fog 71 21.7 70 21.1 96 96 Calm 30.00 1016 1 1 0.00 0.00
6:11 am 06:11 Mostly Cloudy with Mist and Fog 71 21.7 70 21.1 96 96 Calm 30.00 1016 1 2 0.00 0.00
6:18 am 06:18 Partly Cloudy with Mist and Fog 71 21.7 71 21.7 100 100 Calm 30.00 1016 2 2 0.00 0.00
6:27 am 06:27 Sunny with Mist and Fog 72 22.2 71 21.7 97 97 Calm 30.00 1016 3 5 0.00 0.00
6:53 am 06:53 Sunny with Mist and Fog 73 22.8 72 22.2 96 96 Calm 30.02 1017 5 8 0.00 0.00
7:53 am 07:53 Sunny 77 25 75 23.9 94 94 Calm 30.03 1017 10 16 0.00 0.00
8:53 am 08:53 Sunny 84 28.9 74 23.3 72 72 N 6 9 30.04 1017 10 16 0.00 0.00
9:53 am 09:53 Sunny 86 30 73 22.8 65 65 VRB 7 11 30.03 1017 10 16 0.00 0.00
10:53 am 10:53 Sunny 88 31.1 71 21.7 57 57 VRB 5 7 30.02 1017 10 16 0.00 0.00
11:53 am 11:53 Mostly Sunny 90 32.2 71 21.7 54 54 VRB 7 11 30.01 1016 10 16 0.00 0.00
12:53 pm 12:53 Sunny 91 32.8 69 20.6 49 49 NNW 8 13 29.99 1016 10 16 0.00 0.00
1:53 pm 13:53 Mostly Sunny 92 33.3 68 20 46 46 N 7 11 29.98 1015 10 16 0.00 0.00
2:53 pm 14:53 Partly Cloudy 92 33.3 71 21.7 51 51 NNE 7 11 29.96 1015 10 16 0.00 0.00
3:53 pm 15:53 Mostly Sunny 93 33.9 68 20 44 44 VRB 7 11 29.95 1014 10 16 0.00 0.00
4:53 pm 16:53 Mostly Sunny 93 33.9 66 18.9 41 41 ENE 6 9 29.94 1014 10 16 0.00 0.00
5:53 pm 17:53 Sunny 93 33.9 66 18.9 41 41 VRB 5 7 29.93 1014 10 16 0.00 0.00
6:53 pm 18:53 Sunny 90 32.2 69 20.6 50 50 ESE 3 6 29.93 1014 10 16 0.00 0.00
7:53 pm 19:53 Sunny 84 28.9 72 22.2 67 67 Calm 29.95 1014 10 16 0.00 0.00
8:53 pm 20:53 Clear 81 27.2 72 22.2 74 74 Calm 29.95 1014 10 16 0.00 0.00
9:53 pm 21:53 Clear 80 26.7 73 22.8 79 79 Calm 29.96 1015 10 16 0.00 0.00
10:53 pm 22:53 Clear 78 25.6 73 22.8 85 85 Calm 29.97 1015 10 16 0.00 0.00
11:53 pm 23:53 Clear 76 24.4 72 22.2 88 88 Calm 29.97 1015 10 16 0.00 0.00

Powered by AerisWeather